This is the latest recevied weather packets stored in our database for station/object KG5TTF. If no packets are shown the sender has not sent any weather packets the latest 10 day(s).
| Time | Temp. | Humidity | Pressure | Rain* | Wind** | Luminosity | Snow |
|---|---|---|---|---|---|---|---|
| 1777929080 | 19.44° C | 23% | 1013.1 hPa | 0 mm | - | 238 W/m² | - |
| 1777928778 | 20° C | 21% | 1013 hPa | 0 mm | - | 186 W/m² | - |
| 1777928474 | 20° C | 21% | 1013 hPa | 0 mm | - | 214 W/m² | - |
| 1777928172 | 20° C | 21% | 1012.9 hPa | 0 mm | - | 269 W/m² | - |
| 1777927870 | 20.56° C | 21% | 1013.1 hPa | 0 mm | - | 597 W/m² | - |
| 1777927568 | 20° C | 23% | 1013.1 hPa | 0 mm | - | 932 W/m² | - |
| 1777927266 | 19.44° C | 24% | 1013.1 hPa | 0 mm | - | 781 W/m² | - |
| 1777926965 | 19.44° C | 23% | 1013.3 hPa | 0 mm | - | 519 W/m² | - |
| 1777926662 | 19.44° C | 23% | 1013.3 hPa | 0 mm | - | 391 W/m² | - |
| 1777926357 | 20° C | 25% | 1013.7 hPa | 0 mm | - | 493 W/m² | - |
| 1777926054 | 19.44° C | 24% | 1013.7 hPa | 0 mm | - | 754 W/m² | - |
| 1777925751 | 19.44° C | 25% | 1013.5 hPa | 0 mm | - | 803 W/m² | - |
| 1777925449 | 18.89° C | 25% | 1013.5 hPa | 0 mm | - | 822 W/m² | - |
| 1777925144 | 18.89° C | 26% | 1013.6 hPa | 0 mm | - | 854 W/m² | - |
| 1777924842 | 17.78° C | 27% | 1013.6 hPa | 0 mm | - | 786 W/m² | - |
| 1777924538 | 17.22° C | 27% | 1013.6 hPa | 0 mm | - | 574 W/m² | - |
| 1777924234 | 17.78° C | 28% | 1013.2 hPa | 0 mm | - | 616 W/m² | - |
| 1777923931 | 17.78° C | 29% | 1013.2 hPa | 0 mm | - | 680 W/m² | - |
| 1777923626 | 17.22° C | 30% | 1013.1 hPa | 0 mm | - | 473 W/m² | - |
| 1777923323 | 16.67° C | 34% | 1013 hPa | 0 mm | - | 1011 W/m² | - |
| 1777923022 | 16.11° C | 36% | 1013.2 hPa | 1.78 mm | - | 957 W/m² | - |
| 1777922720 | 16.11° C | 35% | 1013.6 hPa | 1.78 mm | - | 749 W/m² | - |
| 1777922418 | 15.56° C | 38% | 1013.5 hPa | 0 mm | - | 611 W/m² | - |
| 1777922115 | 16.67° C | 42% | 1013.6 hPa | 0 mm | - | 242 W/m² | - |
| 1777921811 | 17.78° C | 27% | 1013.2 hPa | 0 mm | - | 134 W/m² | - |
* Rain latest hour (hover to see other rain measurements)
** Current wind speed in m/s (hover to see current wind gust speed)